Regional Weather Roundup
Issued by NWS

Home | Current Version | Previous Version | Text Only | Print | Product List | Glossary Off
Versions: 1 2 3 4 5 6 7 8 9 10 11 12 13 14 15 16 17 18 19 20 21 22 23 24 25 26 27 28 29 30 31 32 33 34 35 36 37 38 39 40 41 42 43 44 45 46 47 48 49 50

000
ASUS43 KIND 061759
RWRIN

WEATHER ROUNDUP FOR INDIANA
NATIONAL WEATHER SERVICE INDIANAPOLIS IN
200 PM EDT MON JUL 06 2015

NOTE: "FAIR" INDICATES FEW OR NO CLOUDS BELOW 12,000 FEET WITH NO
SIGNIFICANT WEATHER AND/OR OBSTRUCTIONS TO VISIBILITY.

* - STATION DOES NOT REPORT WEATHER SUCH AS PRECIPITATION OR FOG.

+ - STATION NOT QUALITY CONTROLLED BY THE NATIONAL WEATHER SERVICE.
    USE DATA WITH CAUTION...ESPECIALLY DEWPOINT AND RELATIVE
    HUMIDITY OBSERVATIONS.

INZ001>003-010>013-019-020-061900-
NORTHWEST INDIANA

CITY           SKY/WX    TMP DP  RH WIND       PRES   REMARKS

$$

LMZ046-743>745-061900-
SOUTHERN LAKE MICHIGAN

STATION/POSITION TIME  TEMP    WIND        PRES    WAVE
                       AIR SEA DIR/SP/G            HT
                 (UTC) (F)     (DEG/KT/KT) (MB)    (FT)
BURNS HARBOR     1700   82     190/ 17/ 21 1014.9F
MICHIGAN CITY    1700   79     160/ 11/ 15   N/A
5NW MICH CITY    1700   74 67  190/ 10/ 12   N/A     1

$$

INZ004-005-014>016-021>024-061900-
NORTH CENTRAL INDIANA

CITY           SKY/WX    TMP DP  RH WIND       PRES   REMARKS
ELKHART        MOSUNNY   82  64  54 SW10      30.01
GOSHEN         MOSUNNY   81  68  64 S10       30.01F
6HR MIN TEMP:  66; 6HR MAX TEMP:  82;

SOUTH BEND     MOSUNNY   83  65  54 S14       30.00F
6HR MIN TEMP:  69; 6HR MAX TEMP:  84;


$$

INZ006>009-017-018-025>027-061900-
NORTHEAST INDIANA

CITY           SKY/WX    TMP DP  RH WIND       PRES   REMARKS
ANGOLA *+        N/A     82  66  57 W10       30.05F
FORT WAYNE     MOSUNNY   83  66  56 SW12      30.06S
6HR MIN TEMP:  64; 6HR MAX TEMP:  83;


$$

INZ028-029-035-036-043>045-051>053-061900-
WEST CENTRAL INDIANA

CITY           SKY/WX    TMP DP  RH WIND       PRES   REMARKS
GREENCASTLE +  MOSUNNY   82  64  54 SW3       30.05F HAZE
LAFAYETTE      SUNNY     82  68  62 SW8       30.01F
6HR MIN TEMP:  67; 6HR MAX TEMP:  83;

TERRE HAUTE    MOSUNNY   85  71  63 S10       30.03F
6HR MIN TEMP:  68; 6HR MAX TEMP:  85;


$$

INZ030>032-037>040-046>048-054>057-064-065-061900-
CENTRAL INDIANA

CITY           SKY/WX    TMP DP  RH WIND       PRES   REMARKS
COLUMBUS       MOSUNNY   84  64  51 S8        30.07
GREENWOOD *+   MOSUNNY   82  64  54 CALM      30.07F
INDIANAPOLIS   MOSUNNY   82  65  56 SW8       30.05S
6HR MIN TEMP:  67; 6HR MAX TEMP:  83;

-EAGLE CREEK   SUNNY     82  65  56 VRB7      30.05F
6HR MIN TEMP:  66; 6HR MAX TEMP:  83;

KOKOMO *+      PTSUNNY   84  66  54 SW12      30.04F
6HR MIN TEMP:  64; 6HR MAX TEMP:  84;

MT COMFORT *+  MOSUNNY   82  61  47 S6        30.07F
SHELBYVILLE    PTSUNNY   83  70  64 SW7       30.07S
6HR MIN TEMP:  66; 6HR MAX TEMP:  83;


$$

INZ033-034-041-042-049-050-058-059-061900-
EAST CENTRAL INDIANA

CITY           SKY/WX    TMP DP  RH WIND       PRES   REMARKS
MUNCIE         MOSUNNY   83  67  58 SW8G20    30.07F
6HR MIN TEMP:  67; 6HR MAX TEMP:  83;


$$

INZ060-061-067>069-081>083-085>088-061900-
SOUTHWEST INDIANA

CITY           SKY/WX    TMP DP  RH WIND       PRES   REMARKS
EVANSVILLE     PTSUNNY   85  72  65 SW9       30.05F
6HR MIN TEMP:  71; 6HR MAX TEMP:  85;

HUNTINGBURG *+ PTSUNNY   84  72  65 SW9       30.06F
6HR MIN TEMP:  70; 6HR MAX TEMP:  84;


$$

INZ062-063-066-070>080-084-089>092-061900-
SOUTH CENTRAL AND SOUTHEAST INDIANA

CITY           SKY/WX    TMP DP  RH WIND       PRES   REMARKS
BLOOMINGTON    PTSUNNY   82  69  64 SW8       30.07S
6HR MIN TEMP:  68; 6HR MAX TEMP:  83;

MADISON *+     MOSUNNY   82  64  54 S3        30.10F
SEYMOUR +      MOSUNNY   84  66  54 SW6       30.07S

$$



USA.gov is the U.S. government's official web portal to all federal, state and local government web resources and services.